User: anonymous   Login
Location: Lixville
(37.5770°N, 89.9118°W)
Time: 12:02:12
(UTC+00:00)
Language:

Courier 1B - Orbit

View from above orbital plane
View from above orbital plane
View from above satellite
View from above satellite

Ground track
Ground track

The orbit data is extracted from the following two-line orbital elements,

1    58U 60013A   25318.76192676  .00000130  00000-0  63565-4 0  9999
2    58  28.3260 147.7536 0164923 232.2609 126.2887 13.46420387205142
Epoch (UTC): 14 November 2025 18:17:10
Eccentricity: 0.0164923
inclination: 28.3260°
perigee height: 962 km
apogee height: 1208 km
right ascension of ascending node: 147.7536°
argument of perigee: 232.2609°
revolutions per day: 13.46420387
mean anomaly at epoch: 126.2887°
orbit number at epoch: 20514

The dashed part of the orbit path shows where the satellite is in the earth's shadow,  

DLR